EW8310 Weather Reports


Display with metric or nautical units.
time (UTC)temp
F
wind
direction
speed
MPH
gust
MPH
rain 1hr
in
rain 24hr
in
rain mn
in
humidity
%
barometer
mb
20260906110846 78 120 0.0 0.0 0.00 0.00 0.00 57 1008.8
20260906110609 78 120 0.0 0.0 0.00 0.00 0.00 56 1008.8
20260906105846 78 120 0.0 1.0 0.00 0.00 0.00 55 1008.8
20260906105346 78 118 0.0 1.0 0.00 0.00 0.00 55 1008.8
20260906104846 78 130 0.0 0.0 0.00 0.00 0.00 55 1008.8
20260906104346 78 123 0.0 1.0 0.00 0.00 0.00 54 1008.8
20260906104104 79 110 0.0 3.0 0.00 0.00 0.00 54 1008.7
20260906103605 79 159 0.0 3.0 0.00 0.00 0.00 53 1008.7
20260906102846 79 164 0.0 3.0 0.00 0.00 0.00 53 1008.7
20260906102608 79 93 0.0 3.0 0.00 0.00 0.00 53 1008.7
20260906101845 80 52 0.0 2.0 0.00 0.00 0.00 52 1008.6
20260906101345 80 51 0.0 2.0 0.00 0.00 0.00 52 1008.6
20260906100845 80 39 0.0 5.0 0.00 0.00 0.00 53 1008.6
20260906100345 79 41 1.0 5.0 0.00 0.00 0.00 53 1008.5
20260906095845 79 41 1.0 4.0 0.00 0.00 0.00 54 1008.6
20260906095345 78 47 0.0 3.0 0.00 0.00 0.00 55 1008.6
20260906094841 78 54 0.0 0.0 0.00 0.00 0.00 56 1008.6
20260906094341 78 54 0.0 0.0 0.00 0.00 0.00 57 1008.6
20260906093841 78 54 0.0 0.0 0.00 0.00 0.00 57 1008.5
20260906093344 78 54 0.0 1.0 0.00 0.00 0.00 57 1008.5
20260906092845 78 54 0.0 1.0 0.00 0.00 0.00 57 1008.5
20260906092344 78 54 0.0 1.0 0.00 0.00 0.00 58 1008.5
20260906091844 77 55 0.0 1.0 0.00 0.00 0.00 58 1008.6
20260906091344 77 344 0.0 0.0 0.00 0.00 0.00 60 1008.6
20260906090844 77 344 0.0 0.0 0.00 0.00 0.00 58 1008.7
20260906090343 77 344 0.0 0.0 0.00 0.00 0.00 59 1008.6
20260906085844 77 8 0.0 0.0 0.00 0.00 0.00 59 1008.7
20260906085343 78 8 0.0 0.0 0.00 0.00 0.00 60 1008.6
20260906084843 77 8 0.0 0.0 0.00 0.00 0.00 60 1008.6
20260906084343 77 7 0.0 0.0 0.00 0.00 0.00 60 1008.7
20260906083843 78 8 0.0 0.0 0.00 0.00 0.00 59 1008.6
20260906083825 78 8 0.0 0.0 0.00 0.00 0.00 58 1008.8
20260906082842 78 8 0.0 0.0 0.00 0.00 0.00 59 1008.6
20260906082342 78 8 0.0 0.0 0.00 0.00 0.00 56 1008.7
20260906081843 78 8 0.0 0.0 0.00 0.00 0.00 55 1008.7
20260906081601 78 8 0.0 0.0 0.00 0.00 0.00 58 1008.9
20260906081101 78 8 0.0 0.0 0.00 0.00 0.00 58 1008.8
20260906080605 78 8 0.0 0.0 0.00 0.00 0.00 57 1008.8
20260906075842 79 265 0.0 0.0 0.00 0.00 0.00 54 1008.8
20260906075342 79 278 0.0 0.0 0.00 0.00 0.00 56 1009.0
20260906074841 79 87 0.0 0.0 0.00 0.00 0.00 53 1009.0
20260906074341 80 87 0.0 0.0 0.00 0.00 0.00 52 1009.0
20260906073842 80 87 0.0 0.0 0.00 0.00 0.00 53 1009.1
20260906073342 80 87 0.0 0.0 0.00 0.00 0.00 52 1009.1
20260906072842 81 87 0.0 0.0 0.00 0.00 0.00 50 1009.1
20260906072342 81 87 0.0 1.0 0.00 0.00 0.00 49 1009.1
20260906071842 82 69 0.0 1.0 0.00 0.00 0.00 48 1009.1
20260906071341 81 69 0.0 0.0 0.00 0.00 0.00 49 1009.1
20260906070841 81 69 0.0 0.0 0.00 0.00 0.00 49 1009.1
20260906070341 81 55 0.0 0.0 0.00 0.00 0.00 50 1009.1
20260906065841 81 27 0.0 0.0 0.00 0.00 0.00 53 1009.1
20260906065341 81 27 0.0 0.0 0.00 0.00 0.00 50 1009.1
20260906064841 82 27 0.0 0.0 0.00 0.00 0.00 50 1009.1
20260906064340 82 27 0.0 0.0 0.00 0.00 0.00 47 1009.1
20260906064048 82 27 0.0 0.0 0.00 0.00 0.00 51 1009.2
20260906063939 82 27 0.0 0.0 0.00 0.00 0.00 49 1009.1
20260906062840 81 28 0.0 0.0 0.00 0.00 0.00 51 1009.1
20260906062605 81 27 0.0 0.0 0.00 0.00 0.00 54 1009.2
20260906061839 82 27 0.0 1.0 0.00 0.00 0.00 51 1009.1
20260906061339 82 27 0.0 1.0 0.00 0.00 0.00 50 1009.2
20260906060840 82 272 0.0 0.0 0.00 0.00 0.00 51 1009.2
20260906060340 83 272 0.0 0.0 0.00 0.00 0.00 49 1009.4
20260906055839 83 272 0.0 1.0 0.00 0.00 0.00 48 1009.2
20260906055339 84 68 0.0 1.0 0.00 0.00 0.00 44 1009.2
20260906054839 85 73 0.0 2.0 0.00 0.00 0.00 43 1009.2
20260906054338 85 99 0.0 3.0 0.00 0.00 0.00 43 1009.1
20260906053839 84 92 0.0 3.0 0.00 0.00 0.00 44 1009.2
20260906053340 83 87 0.0 4.0 0.00 0.00 0.00 46 1009.2
20260906053059 83 49 1.0 4.0 0.00 0.00 0.00 47 1009.2
20260906052340 81 78 0.0 2.0 0.00 0.00 0.00 51 1009.4
20260906051839 81 324 0.0 0.0 0.00 0.00 0.00 54 1009.4
20260906051600 80 326 0.0 0.0 0.00 0.00 0.00 55 1009.4
20260906051044 81 324 0.0 0.0 0.00 0.00 0.00 52 1009.4
20260906050927 81 324 0.0 0.0 0.00 0.00 0.00 55 1009.4
20260906050101 81 324 0.0 0.0 0.00 0.00 0.00 54 1009.4
20260906045338 81 324 0.0 0.0 0.00 0.00 0.00 52 1009.4
20260906044838 82 324 0.0 0.0 0.00 0.00 0.00 53 1009.4
20260906044337 82 326 0.0 0.0 0.00 0.00 0.00 52 1009.4
20260906043837 82 324 0.0 0.0 0.00 0.00 0.00 52 1009.4
20260906043338 82 324 0.0 0.0 0.00 0.00 0.00 52 1009.4
20260906042337 83 324 0.0 0.0 0.00 0.00 0.00 49 1009.4
20260906041837 83 103 0.0 0.0 0.00 0.00 0.00 49 1009.4
20260906041336 84 103 0.0 0.0 0.00 0.00 0.00 49 1009.2
20260906040837 85 103 0.0 0.0 0.00 0.00 0.00 45 1009.4
20260906040337 85 103 0.0 0.0 0.00 0.00 0.00 44 1009.4
20260906035836 84 103 0.0 0.0 0.00 0.00 0.00 47 1009.4
20260906035337 84 103 0.0 0.0 0.00 0.00 0.00 46 1009.4
20260906034836 85 104 0.0 0.0 0.00 0.00 0.00 44 1009.2
20260906034336 86 104 0.0 0.0 0.00 0.00 0.00 45 1009.2
20260906033836 86 106 0.0 0.0 0.00 0.00 0.00 40 1009.1
20260906033335 87 106 0.0 0.0 0.00 0.00 0.00 39 1009.1
20260906033058 87 106 0.0 0.0 0.00 0.00 0.00 39 1009.0
20260906032815 87 100 0.0 0.0 0.00 0.00 0.00 40 1008.9
20260906031835 86 262 0.0 0.0 0.00 0.00 0.00 40 1008.8
20260906031336 86 269 0.0 0.0 0.00 0.00 0.00 42 1008.8
20260906030835 86 269 0.0 0.0 0.00 0.00 0.00 43 1008.7
20260906030336 87 269 0.0 0.0 0.00 0.00 0.00 41 1008.7
20260906030057 87 269 0.0 0.0 0.00 0.00 0.00 39 1008.6
20260906025335 88 250 0.0 0.0 0.00 0.00 0.00 39 1008.5
20260906024835 88 54 0.0 0.0 0.00 0.00 0.00 37 1008.4
20260906024335 88 169 0.0 0.0 0.00 0.00 0.00 37 1008.4
20260906023835 89 169 0.0 1.0 0.00 0.00 0.00 37 1008.4
20260906023335 89 175 0.0 1.0 0.00 0.00 0.00 36 1008.3
20260906022835 89 134 0.0 1.0 0.00 0.00 0.00 36 1008.2
20260906022334 89 216 0.0 2.0 0.00 0.00 0.00 36 1008.2
20260906021834 89 282 0.0 5.0 0.00 0.00 0.00 36 1008.3
20260906021335 89 281 2.0 6.0 0.00 0.00 0.00 36 1008.2
20260906020834 89 281 2.0 7.0 0.00 0.00 0.00 36 1008.2
20260906020334 90 250 1.0 11.0 0.00 0.00 0.00 36 1008.2
20260906015834 90 340 5.0 11.0 0.00 0.00 0.00 36 1008.2
20260906015333 90 296 1.0 7.0 0.00 0.00 0.00 36 1008.2
20260906014833 90 298 4.0 10.0 0.00 0.00 0.00 36 1008.2
20260906014334 90 269 4.0 10.0 0.00 0.00 0.00 35 1008.1
20260906013833 90 286 4.0 12.0 0.00 0.00 0.00 35 1008.2
20260906013553 91 234 6.0 12.0 0.00 0.00 0.00 35 1008.1
20260906012833 91 307 4.0 15.0 0.00 0.00 0.00 35 1008.1
20260906012333 91 298 8.0 15.0 0.00 0.00 0.00 35 1008.1
20260906011833 91 289 3.0 11.0 0.00 0.00 0.00 35 1008.1
20260906011333 92 293 5.0 11.0 0.00 0.00 0.00 35 1008.2
20260906010832 92 293 6.0 13.0 0.00 0.00 0.00 34 1008.1
20260906010550 92 350 7.0 13.0 0.00 0.00 0.00 35 1008.2
20260906005833 92 310 6.0 13.0 0.00 0.00 0.00 34 1008.2
20260906005333 92 353 5.0 13.0 0.00 0.00 0.00 34 1008.2
20260906004833 93 295 3.0 13.0 0.00 0.00 0.00 34 1007.9
20260906004332 93 275 5.0 14.0 0.00 0.00 0.00 34 1008.1
20260906003832 93 299 7.0 14.0 0.00 0.00 0.00 34 1008.2
20260906003332 93 278 4.0 13.0 0.00 0.00 0.00 34 1008.2
20260906002832 93 4 5.0 13.0 0.00 0.00 0.00 33 1008.1
20260906002331 94 299 7.0 13.0 0.00 0.00 0.00 33 1008.1
20260906001831 94 238 2.0 5.0 0.00 0.00 0.00 33 1008.1
20260906001552 94 323 0.0 10.0 0.00 0.00 0.00 34 1007.9
20260906000831 94 278 1.0 10.0 0.00 0.00 0.00 32 1007.8
20260906000333 94 302 1.0 9.0 0.00 0.00 0.00 32 1007.9
20260905235831 94 250 4.0 12.0 0.00 0.00 0.00 33 1007.9
20260905235556 94 302 3.0 12.0 0.00 0.00 0.00 32 1007.8
20260905234831 94 354 3.0 11.0 0.00 0.00 0.00 32 1007.8
20260905234330 94 275 8.0 14.0 0.00 0.00 0.00 32 1007.8
20260905233830 94 300 7.0 14.0 0.00 0.00 0.00 32 1007.9
20260905233601 94 262 6.0 13.0 0.00 0.00 0.00 32 1007.8
20260905233038 94 306 4.0 16.0 0.00 0.00 0.00 33 1007.9
20260905232920 94 281 6.0 13.0 0.00 0.00 0.00 33 1007.9
20260905231830 94 272 7.0 16.0 0.00 0.00 0.00 33 1007.9
20260905231331 94 283 9.0 17.0 0.00 0.00 0.00 32 1007.9
20260905230830 94 252 8.0 17.0 0.00 0.00 0.00 33 1008.1
20260905230330 94 274 7.0 15.0 0.00 0.00 0.00 32 1007.9
20260905230323 94 292 10.0 16.0 0.00 0.00 0.00 32 1007.9
20260905225330 94 213 9.0 19.0 0.00 0.00 0.00 32 1008.1
20260905224830 94 278 12.0 20.0 0.00 0.00 0.00 32 1008.1
20260905224329 95 286 9.0 20.0 0.00 0.00 0.00 31 1008.1
20260905223829 95 243 6.0 15.0 0.00 0.00 0.00 32 1008.1
20260905223329 94 296 6.0 18.0 0.00 0.00 0.00 33 1008.1
20260905222828 95 313 6.0 18.0 0.00 0.00 0.00 32 1008.1
20260905222329 95 302 9.0 18.0 0.00 0.00 0.00 32 1008.2
20260905221829 95 285 10.0 18.0 0.00 0.00 0.00 31 1008.2
20260905221328 95 276 8.0 15.0 0.00 0.00 0.00 32 1008.3
20260905220829 95 290 4.0 13.0 0.00 0.00 0.00 33 1008.3
20260905220329 95 259 7.0 13.0 0.00 0.00 0.00 33 1008.4
20260905220049 95 271 5.0 13.0 0.00 0.00 0.00 32 1008.5
20260905215328 95 213 4.0 14.0 0.00 0.00 0.00 33 1008.5
20260905214828 95 275 5.0 15.0 0.00 0.00 0.00 33 1008.7
20260905214549 95 305 9.0 15.0 0.00 0.00 0.00 33 1008.7
20260905213828 95 307 6.0 15.0 0.00 0.00 0.00 33 1008.8
20260905213328 96 281 6.0 14.0 0.00 0.00 0.00 32 1008.9
20260905212828 96 123 2.0 14.0 0.00 0.00 0.00 33 1008.9
20260905212327 95 269 4.0 11.0 0.00 0.00 0.00 33 1008.9
20260905212027 95 210 7.0 13.0 0.00 0.00 0.00 33 1009.1
20260905211918 95 189 4.0 13.0 0.00 0.00 0.00 33 1009.0
20260905210827 95 248 4.0 13.0 0.00 0.00 0.00 33 1009.1
20260905210327 95 303 5.0 13.0 0.00 0.00 0.00 32 1009.2
20260905205827 95 268 4.0 12.0 0.00 0.00 0.00 33 1009.4
20260905205327 95 220 5.0 12.0 0.00 0.00 0.00 33 1009.5
20260905204827 95 292 4.0 12.0 0.00 0.00 0.00 33 1009.5
20260905204326 95 281 2.0 13.0 0.00 0.00 0.00 34 1009.5
20260905203827 94 292 6.0 13.0 0.00 0.00 0.00 35 1009.7
20260905203326 95 258 6.0 11.0 0.00 0.00 0.00 34 1009.7
20260905202826 95 266 6.0 11.0 0.00 0.00 0.00 34 1009.8
20260905202326 95 288 2.0 11.0 0.00 0.00 0.00 34 1010.0
20260905201825 96 283 6.0 13.0 0.00 0.00 0.00 34 1010.0
20260905201325 95 202 4.0 13.0 0.00 0.00 0.00 35 1010.1
20260905200826 95 250 6.0 12.0 0.00 0.00 0.00 35 1010.1
20260905200326 94 192 6.0 12.0 0.00 0.00 0.00 34 1010.2
20260905195825 95 290 3.0 12.0 0.00 0.00 0.00 35 1010.2
20260905195326 94 259 3.0 12.0 0.00 0.00 0.00 36 1010.3
20260905194825 95 285 8.0 12.0 0.00 0.00 0.00 34 1010.4
20260905194325 97 336 0.0 9.0 0.00 0.00 0.00 33 1010.4
20260905193825 96 206 1.0 10.0 0.00 0.00 0.00 33 1010.4
20260905193325 95 221 5.0 10.0 0.00 0.00 0.00 34 1010.5
20260905192825 95 152 3.0 9.0 0.00 0.00 0.00 35 1010.5
20260905192325 94 258 4.0 9.0 0.00 0.00 0.00 35 1010.8
20260905191825 94 251 2.0 6.0 0.00 0.00 0.00 37 1010.8
20260905191324 93 262 3.0 9.0 0.00 0.00 0.00 37 1010.8
20260905190824 93 271 2.0 9.0 0.00 0.00 0.00 37 1010.9
20260905190324 92 62 1.0 9.0 0.00 0.00 0.00 37 1011.0
20260905185824 92 293 0.0 11.0 0.00 0.00 0.00 38 1011.1
20260905185324 93 282 4.0 11.0 0.00 0.00 0.00 38 1011.3
20260905184824 92 243 3.0 6.0 0.00 0.00 0.00 39 1011.3
20260905184323 92 244 0.0 6.0 0.00 0.00 0.00 40 1011.5
20260905183823 92 264 3.0 6.0 0.00 0.00 0.00 39 1011.6
20260905183540 91 293 0.0 6.0 0.00 0.00 0.00 40 1011.5
20260905182823 91 250 3.0 6.0 0.00 0.00 0.00 40 1011.5
20260905182323 92 261 3.0 6.0 0.00 0.00 0.00 39 1011.6
20260905182047 91 230 1.0 6.0 0.00 0.00 0.00 40 1011.7
20260905181544 91 340 0.0 6.0 0.00 0.00 0.00 39 1011.7
20260905180823 91 278 2.0 7.0 0.00 0.00 0.00 39 1011.8
20260905180322 91 292 3.0 7.0 0.00 0.00 0.00 40 1011.6
20260905180041 92 276 0.0 5.0 0.00 0.00 0.00 40 1011.6
20260905175322 92 252 2.0 5.0 0.00 0.00 0.00 40 1011.7
20260905174822 91 224 1.0 4.0 0.00 0.00 0.00 41 1011.7
20260905174322 90 292 1.0 3.0 0.00 0.00 0.00 41 1011.8
20260905174044 90 293 1.0 4.0 0.00 0.00 0.00 40 1012.0
20260905173322 89 207 0.0 4.0 0.00 0.00 0.00 41 1011.8
20260905172821 89 259 2.0 5.0 0.00 0.00 0.00 43 1012.0
20260905172322 88 0 0.0 5.0 0.00 0.00 0.00 42 1012.0
20260905172042 88 316 3.0 5.0 0.00 0.00 0.00 44 1011.8
20260905171322 88 313 1.0 6.0 0.00 0.00 0.00 45 1012.1
20260905170821 87 285 2.0 6.0 0.00 0.00 0.00 46 1012.1
20260905170322 88 298 2.0 5.0 0.00 0.00 0.00 45 1012.2
20260905170044 88 293 0.0 4.0 0.00 0.00 0.00 46 1012.1
20260905165538 89 0 0.0 1.0 0.00 0.00 0.00 45 1012.1
20260905164821 89 250 0.0 3.0 0.00 0.00 0.00 45 1012.2
20260905164322 88 240 0.0 3.0 0.00 0.00 0.00 48 1012.2
20260905163821 88 272 0.0 3.0 0.00 0.00 0.00 47 1012.2
20260905163320 87 283 0.0 4.0 0.00 0.00 0.00 49 1012.2
20260905162821 87 262 1.0 4.0 0.00 0.00 0.00 48 1012.2
20260905162320 87 234 0.0 2.0 0.00 0.00 0.00 47 1012.2
20260905161821 88 243 0.0 2.0 0.00 0.00 0.00 47 1012.2
20260905161320 88 152 0.0 3.0 0.00 0.00 0.00 45 1012.2
20260905160820 87 209 2.0 3.0 0.00 0.00 0.00 47 1012.2
20260905160319 87 226 0.0 2.0 0.00 0.00 0.00 48 1012.2
20260905155820 86 149 0.0 0.0 0.00 0.00 0.00 50 1012.1
20260905155526 85 203 0.0 2.0 0.00 0.00 0.00 52 1012.1
20260905155413 86 152 0.0 2.0 0.00 0.00 0.00 51 1012.2
20260905154319 84 231 0.0 2.0 0.00 0.00 0.00 54 1012.1
20260905153819 83 234 0.0 2.0 0.00 0.00 0.00 56 1012.1
20260905153320 82 275 0.0 2.0 0.00 0.00 0.00 58 1012.2
20260905152819 82 334 0.0 2.0 0.00 0.00 0.00 59 1012.1
20260905152319 82 285 0.0 2.0 0.00 0.00 0.00 58 1012.2
20260905151819 82 275 0.0 1.0 0.00 0.00 0.00 60 1012.1
20260905151319 82 275 0.0 1.0 0.00 0.00 0.00 59 1012.1
20260905150818 82 275 0.0 2.0 0.00 0.00 0.00 57 1012.1
20260905150319 84 275 0.0 2.0 0.00 0.00 0.00 55 1012.1
20260905145819 85 147 0.0 0.0 0.00 0.00 0.00 55 1012.1
20260905145319 82 147 0.0 0.0 0.00 0.00 0.00 58 1012.1
20260905144818 81 147 0.0 0.0 0.00 0.00 0.00 59 1012.2
20260905144318 80 147 0.0 0.0 0.00 0.00 0.00 60 1012.1
20260905143818 80 147 0.0 0.0 0.00 0.00 0.00 60 1012.2
20260905143317 80 145 0.0 0.0 0.00 0.00 0.00 62 1012.1
20260905142818 79 147 0.0 0.0 0.00 0.00 0.00 65 1012.1
20260905142317 78 147 0.0 0.0 0.00 0.00 0.00 67 1012.0
20260905141818 77 151 0.0 0.0 0.00 0.00 0.00 66 1012.0
20260905141804 77 151 0.0 0.0 0.00 0.00 0.00 68 1011.8
20260905141044 76 152 0.0 0.0 0.00 0.00 0.00 70 1011.8
20260905140541 76 151 0.0 0.0 0.00 0.00 0.00 70 1011.7
20260905135817 76 152 0.0 0.0 0.00 0.00 0.00 71 1011.6
20260905135317 75 23 0.0 0.0 0.00 0.00 0.00 72 1011.5
20260905134816 75 23 0.0 0.0 0.00 0.00 0.00 73 1011.5
20260905134316 75 23 0.0 0.0 0.00 0.00 0.00 72 1011.4
20260905133816 74 23 0.0 0.0 0.00 0.00 0.00 72 1011.3
20260905133316 74 24 0.0 0.0 0.00 0.00 0.00 73 1011.2
20260905133035 73 24 0.0 0.0 0.00 0.00 0.00 74 1011.1
20260905132541 73 24 0.0 0.0 0.00 0.00 0.00 75 1011.1
20260905131817 73 24 0.0 0.0 0.00 0.00 0.00 75 1010.9
20260905131316 73 24 0.0 1.0 0.00 0.00 0.00 74 1010.9
20260905131044 73 35 0.0 2.0 0.00 0.00 0.00 75 1010.9
20260905130538 72 37 0.0 2.0 0.00 0.00 0.00 77 1010.8
20260905125816 72 24 0.0 0.0 0.00 0.00 0.00 78 1010.8
20260905125535 72 24 0.0 0.0 0.00 0.00 0.00 77 1010.8
20260905124815 72 24 0.0 0.0 0.00 0.00 0.00 76 1010.9
20260905124315 72 24 0.0 0.0 0.00 0.00 0.00 76 1010.8
20260905124042 72 24 0.0 0.0 0.00 0.00 0.00 76 1010.7
20260905123538 72 24 0.0 0.0 0.00 0.00 0.00 76 1010.7
20260905122815 73 24 0.0 0.0 0.00 0.00 0.00 75 1010.8
20260905122315 73 24 0.0 0.0 0.00 0.00 0.00 74 1010.8
20260905121814 73 24 0.0 0.0 0.00 0.00 0.00 73 1010.7
20260905121314 74 24 0.0 0.0 0.00 0.00 0.00 72 1010.7
20260905120815 74 25 0.0 0.0 0.00 0.00 0.00 72 1010.7
20260905120315 74 27 0.0 0.0 0.00 0.00 0.00 72 1010.7
20260905115814 73 27 0.0 0.0 0.00 0.00 0.00 72 1010.7
20260905115314 73 27 0.0 0.0 0.00 0.00 0.00 72 1010.5
20260905114814 74 27 0.0 0.0 0.00 0.00 0.00 72 1010.4
20260905114313 74 27 0.0 0.0 0.00 0.00 0.00 70 1010.5
20260905113814 74 27 0.0 0.0 0.00 0.00 0.00 70 1010.4
20260905113534 74 27 0.0 0.0 0.00 0.00 0.00 70 1010.4
20260905112814 74 14 0.0 0.0 0.00 0.00 0.00 71 1010.5
20260905112532 74 14 0.0 1.0 0.00 0.00 0.00 71 1010.5
20260905111813 74 45 0.0 1.0 0.00 0.00 0.00 72 1010.5
20260905111313 73 87 0.0 0.0 0.00 0.00 0.00 73 1010.7